CW3175 Weather Reports


time (UTC)temp
F
wind
direction
speed
knots
gust
knots
rain 1hr
in
rain 24hr
in
rain mn
in
humidity
%
barometer
mb
20140424153542 57 147 5.2 11.3 0.00 0.00 0.03 46 1012.9
20140424152039 56 133 7.0 11.3 0.00 0.00 0.03 48 1012.9
20140424150538 55 161 5.2 18.2 0.00 0.00 0.03 49 1013.0
20140424145036 54 145 6.1 13.0 0.00 0.00 0.03 51 1013.4
20140424143538 53 142 7.0 13.0 0.00 0.00 0.03 50 1013.4
20140424142037 54 175 4.3 10.4 0.00 0.00 0.03 53 1013.7
20140424140538 53 135 3.5 9.6 0.00 0.00 0.03 54 1014.1
20140424135026 51 138 2.6 8.7 0.00 0.00 0.03 60 1014.6
20140424133456 50 163 2.6 6.1 0.00 0.00 0.03 63 1014.7
20140424131956 49 122 1.7 7.8 0.00 0.00 0.03 67 1014.7
20140424130452 48 113 1.7 6.1 0.00 0.00 0.03 72 1014.8
20140424124954 46 107 2.6 10.4 0.00 0.00 0.03 77 1015.2
20140424123453 45 135 1.7 6.1 0.00 0.00 0.03 79 1015.3
20140424121952 44 120 1.7 7.0 0.00 0.00 0.03 79 1015.4
20140424120450 44 102 1.7 7.8 0.00 0.00 0.03 79 1015.5
20140424114948 43 111 1.7 6.1 0.00 0.00 0.03 79 1015.7
20140424113443 43 98 1.7 5.2 0.00 0.00 0.03 78 1015.8
20140424111943 43 109 0.9 5.2 0.00 0.00 0.03 79 1015.9
20140424110440 42 87 0.9 5.2 0.00 0.00 0.03 78 1016.2
20140424104935 42 64 0.9 5.2 0.00 0.00 0.03 77 1016.3
20140424103430 42 64 2.6 10.4 0.00 0.00 0.03 75 1016.2
20140424101925 42 57 1.7 5.2 0.00 0.00 0.03 73 1016.7
20140424100425 42 49 0.9 4.3 0.00 0.00 0.03 72 1016.8
20140424094921 42 28 1.7 6.1 0.00 0.00 0.03 70 1016.8
20140424093404 43 53 1.7 6.1 0.00 0.00 0.03 70 1016.8
20140424091846 42 0 2.6 7.8 0.00 0.00 0.03 70 1016.9
20140424090342 42 53 2.6 9.6 0.00 0.00 0.03 71 1016.8
20140424084842 42 44 1.7 7.8 0.00 0.00 0.03 71 1016.7
20140424083342 43 102 0.0 3.5 0.00 0.00 0.03 70 1016.9
20140424081835 42 73 0.0 4.3 0.00 0.00 0.03 68 1017.5
20140424080310 42 86 0.9 4.3 0.00 0.00 0.03 69 1017.4
20140424074810 42 48 1.7 5.2 0.01 0.00 0.03 69 1016.9
20140424073242 42 64 0.0 3.5 0.01 0.00 0.03 70 1016.9
20140424071734 41 63 1.7 4.3 0.01 0.00 0.03 69 1016.9
20140424070147 41 35 0.9 5.2 0.02 0.00 0.03 68 1017.3
20140424064644 41 47 1.7 4.3 0.01 0.00 0.02 66 1017.2
20140424063145 41 32 2.6 7.8 0.02 0.00 0.02 64 1017.3
20140424061643 41 19 0.9 5.2 0.02 0.00 0.02 67 1017.5
20140424060139 41 52 0.9 3.5 0.01 0.00 0.01 65 1017.1
20140424054639 41 52 0.9 4.3 0.01 0.00 0.01 67 1016.9
20140424053138 41 108 0.9 5.2 0.00 0.00 0.00 68 1016.4
20140424051639 41 108 1.7 5.2 0.00 0.00 0.00 65 1016.2
20140424050139 41 111 1.7 5.2 0.00 0.00 0.00 65 1015.9
20140424044638 40 104 3.5 8.7 0.00 0.00 0.00 65 1015.9
20140424043138 40 92 2.6 10.4 0.00 0.00 0.00 67 1015.9
20140424041638 40 101 2.6 9.6 0.00 0.00 0.00 68 1016.4
20140424040137 40 106 2.6 9.6 0.00 0.00 0.00 68 1016.8
20140424034636 40 96 2.6 7.8 0.00 0.00 0.00 67 1017.0
20140424033135 40 79 2.6 8.7 0.00 0.00 0.00 65 1017.5
20140424031633 40 98 2.6 7.8 0.00 0.00 0.00 64 1017.6
20140424030130 40 93 1.7 6.1 0.00 0.00 0.00 63 1018.0
20140424024629 40 121 1.7 5.2 0.00 0.00 0.00 61 1018.1
20140424023119 40 67 2.6 6.1 0.00 0.00 0.00 59 1018.1
20140424021617 41 43 1.7 8.7 0.00 0.00 0.00 56 1018.3
20140424020115 41 112 1.7 5.2 0.00 0.00 0.00 54 1018.6
20140424014554 41 48 0.9 5.2 0.00 0.00 0.00 53 1018.7
20140424013051 41 77 1.7 7.8 0.00 0.00 0.00 52 1019.0
20140424011551 41 44 2.6 7.8 0.00 0.00 0.00 51 1019.2
20140424010050 41 77 1.7 7.8 0.00 0.00 0.00 50 1019.4
20140424004543 41 28 2.6 11.3 0.00 0.00 0.00 52 1019.2
20140424003044 41 61 3.5 10.4 0.00 0.00 0.00 52 1019.1
20140424001539 41 57 3.5 8.7 0.00 0.00 0.00 51 1019.0
20140424000037 42 32 4.3 10.4 0.00 0.00 0.00 49 1019.1
20140423234536 42 39 4.3 10.4 0.00 0.00 0.00 47 1019.2
20140423233033 42 351 5.2 10.4 0.00 0.00 0.00 48 1019.6
20140423231532 42 73 3.5 10.4 0.00 0.00 0.00 48 1019.5
20140423230030 42 19 4.3 10.4 0.00 0.00 0.00 50 1019.2
20140423224528 43 88 4.3 11.3 0.00 0.00 0.00 50 1019.1
20140423223027 44 70 3.5 10.4 0.00 0.00 0.00 46 1019.2
20140423221528 44 55 3.5 9.6 0.00 0.00 0.00 42 1019.6
20140423220028 44 21 5.2 12.2 0.00 0.00 0.00 41 1019.7
20140423214527 44 15 6.1 12.2 0.00 0.00 0.00 43 1019.6
20140423213025 44 15 6.1 13.9 0.00 0.00 0.00 44 1019.5
20140423211524 44 81 5.2 13.9 0.00 0.00 0.00 46 1019.5
20140423210021 45 43 4.3 11.3 0.00 0.00 0.00 45 1019.4
20140423204520 45 51 5.2 13.9 0.00 0.00 0.00 46 1019.6
20140423203017 45 0 6.1 12.2 0.00 0.00 0.00 46 1019.7
20140423201519 45 351 5.2 12.2 0.00 0.00 0.00 42 1019.8
20140423200014 44 42 6.1 13.0 0.00 0.00 0.00 44 1020.2
20140423194512 45 38 5.2 13.9 0.00 0.00 0.00 45 1020.1
20140423193011 45 21 5.2 12.2 0.00 0.00 0.00 48 1020.2
20140423191510 44 14 5.2 12.2 0.00 0.00 0.00 52 1020.2
20140423190011 45 42 6.1 13.9 0.00 0.00 0.00 48 1020.2
20140423184511 45 73 4.3 10.4 0.00 0.00 0.00 44 1020.8
20140423183008 46 46 4.3 10.4 0.00 0.00 0.00 46 1020.8
20140423181505 46 109 2.6 8.7 0.00 0.00 0.00 46 1020.7
20140423180005 45 116 4.3 10.4 0.00 0.00 0.00 47 1021.1
20140423174500 46 51 2.6 8.7 0.00 0.00 0.00 46 1021.0
20140423172958 45 74 2.6 11.3 0.00 0.00 0.00 48 1021.3
20140423171456 44 61 3.5 9.6 0.00 0.00 0.00 47 1021.1
20140423165956 44 27 3.5 9.6 0.00 0.00 0.00 48 1020.9
20140423164454 44 38 3.5 9.6 0.00 0.00 0.00 48 1021.0
20140423162951 42 61 5.2 11.3 0.00 0.00 0.00 52 1021.2
20140423161449 43 61 4.3 10.4 0.00 0.00 0.00 53 1021.2
20140423155945 42 350 5.2 13.0 0.00 0.00 0.00 54 1021.2